Lid_Strength_Index
0 0 0 0 -0 -0 -0 -0 -0 -1 -1 -1 -1 -1 -1 -1 -1 -1 -1 -1 -0 -0 -0 -0 -0 -1 0 -0 -0 0 1 1 3 1 0 -1 -1 -1 -1 -1 -1 -1 0
0 0 0 0 -0 0 0 -0 -1 -0 -1 -1 -1 -0 -1 -1 -1 -0 -0 -0 -0 0 -0 -0 0 -0 -0 -0 0 0 1 -0 1 2 0 0 -0 -1 -1 -1 -1 -1 -1
0 1 0 1 0 0 0 -0 -0 -0 -0 -0 -1 -0 -0 -1 -1 -1 -1 -0 -0 -0 -0 -0 0 -0 0 -0 0 0 0 0 0 2 2 0 0 -0 -0 -1 -1 -1 -1
1 1 1 1 0 0 -0 -0 -0 -0 -0 -0 -0 -0 -0 -0 -0 -0 -1 -0 -0 -0 -1 -0 -0 -0 -0 0 0 0 -0 0 0 1 1 1 1 -0 0 1 1 -1 -1
1 1 1 0 0 -0 -0 -0 -0 -0 -0 -0 -0 -0 -0 -0 -0 -0 -0 -0 -0 -0 -0 -1 -1 -0 1 0 0 -0 0 1 1 2 2 2 2 2 2 1 1 0 0
1 1 0 0 0 0 0 0 0 0 -0 -0 0 0 0 0 2 2 0 -0 -0 0 0 -0 -1 0 1 3 3 3 1 1 1 2 2 2 2 1 0 1 1 2 3
1 1 1 1 1 1 0 0 1 1 0 1 0 0 0 0 4 3 2 -0 0 -0 -0 -0 0 -0 0 -0 3 4 4 4 3 0 1 1 1 1 1 1 2 2 3
1 1 1 1 1 1 1 1 1 1 1 1 1 0 0 0 5 4 3 -0 -0 -0 -0 -0 0 -0 0 -0 0 0 -0 -0 -0 0 0 1 3 2 2 2 2 2 2
1 1 1 1 1 1 1 1 1 1 1 1 0 1 1 0 7 6 3 -0 0 1 0 -0 -0 -0 7 5 0 1 1 1 3 5 5 5 6 6 5 2 5 4 5
1 1 1 1 1 1 1 1 1 1 1 1 1 0 2 0 8 7 2 0 1 1 0 1 6 3 8 6 0 1 1 2 3 3 3 4 4 6 5 4 5 5 3
1 1 1 1 1 1 1 1 1 1 1 1 1 1 1 1 4 8 7 1 1 1 1 2 5 8 9 8 6 1 2 2 4 3 2 3 4 3 3 3 2 3 2
1 1 1 2 3 4 5 1 1 1 2 2 3 4 3 2 6 7 7 4 3 1 2 3 5 8 9 8 6 8 8 5 2 2 1 1 1 2 3 2 0 -2 -1
1 1 1 3 4 5 6 5 2 2 3 4 6 6 6 6 5 7 7 6 5 3 2 6 8 9 9 8 7 6 6 3 3 4 4 4 4 2 -0 -1 -2 -2 -2
1 1 1 3 6 8 10 7 7 5 4 5 7 8 8 8 7 6 7 6 7 7 6 6 6 6 6 6 4 3 2 3 3 4 4 2 1 -0 0 0 1 1 2
2 1 1 3 4 7 12 13 10 10 8 8 8 8 8 11 12 12 9 8 9 10 8 6 6 5 5 4 4 3 3 3 3 1 0 0 0 0 1 1 1 0 2
2 2 2 3 4 5 8 11 12 13 14 14 13 11 11 12 13 13 14 14 13 11 8 7 7 6 6 5 5 5 4 2 0 -0 0 1 1 1 1 0 0 1 2
2 2 2 3 3 5 7 8 10 12 13 15 15 15 14 15 15 16 15 15 15 9 7 6 7 6 6 6 5 4 3 1 -1 1 1 1 1 1 1 1 1 1 2
1 5 2 3 3 4 5 7 8 9 11 12 13 15 15 15 15 16 15 12 8 8 6 6 6 5 4 2 1 1 1 0 0 0 0 1 0 1 1 1 2 2 2
1 1 2 3 5 6 7 7 7 8 7 8 10 10 12 14 15 15 14 5 6 6 5 5 3 1 1 1 0 0 0 1 1 1 1 0 -0 1 1 1 2 5 4
1 3 2 4 6 5 3 4 6 6 8 7 7 8 8 9 7 6 4 3 3 2 1 1 1 1 0 0 1 0 1 1 1 1 0 -0 -0 1 1 2 2 2 2
3 3 2 2 3 3 3 3 3 5 4 4 4 4 5 3 3 2 1 1 1 1 1 1 1 1 1 1 1 1 1 1 1 0 0 0 1 2 1 1 2 1 1
2 2 2 2 1 1 1 1 1 2 3 2 2 2 6 1 1 1 1 1 1 0 1 0 1 1 1 1 1 1 1 1 0 0 0 0 1 1 2 1 1 1 1
0 1 1 1 0 2 1 1 1 1 1 1 1 1 1 1 0 0 0 0 0 0 -0 0 0 1 1 1 1 1 1 2 1 1 1 1 1 2 1 1 1 2 2
0 0 1 1 1 1 1 1 1 2 1 1 0 1 1 0 0 0 -0 -0 -0 -0 -0 0 0 1 0 1 1 1 2 2 1 1 1 1 1 3 0 1 1 2 1
0 1 0 1 1 1 1 1 1 0 0 0 0 0 0 -0 -0 -0 -0 -1 -0 0 0 0 0 0 1 2 2 2 9 13 4 10 1 2 2 2 1 1 1 2 2
0 0 0 0 0 0 1 1 1 0 1 0 0 0 -0 0 -0 -0 -0 0 1 1 0 0 0 1 1 2 3 10 14 13 7 13 2 0 1 0 1 2 2 2 2